Regional Weather Roundup
Issued by NWS Newport/Morehead, NC

Current Version | Previous Version | Text Only | Print | Product List | Glossary On
Versions: 1 2 3 4 5 6 7 8 9 10 11 12 13 14 15 16 17 18 19 20 21 22 23 24 25 26 27 28 29 30 31 32 33 34 35 36 37 38 39 40 41 42 43 44 45 46 47 48 49 50
705
ASUS42 KMHX 251625
RWRMHX
WEATHER ROUNDUP FOR EASTERN NORTH CAROLINA
NATIONAL WEATHER SERVICE NEWPORT/MOREHEAD CITY NC
1200 PM EDT THU AUG 25 2016

NOTE: "FAIR" INDICATES FEW OR NO CLOUDS BELOW 12,000 FEET
WITH NO SIGNIFICANT WEATHER AND/OR OBSTRUCTIONS TO VISIBILITY

NCZ015>017-031-032-045>047-102-103-251700-
NORTH COAST

CITY           SKY/WX    TMP DP  RH WIND       PRES   REMARKS
EDENTON        SUNNY     85  62  46 SW5       30.18S
ELIZABETH CITY SUNNY     83  65  54 CALM      30.17S
KITTY HAWK     CLOUDY    83  71  66 CALM      30.17S
MANTEO         PTSUNNY   80  67  63 CALM      30.18S

$$

NCZ045>047-081-094-103-104-251700-
CENTRAL COAST

CITY           SKY/WX    TMP DP  RH WIND       PRES   REMARKS
FRISCO         SUNNY     85  66  53 NE8       30.17F

$$

NCZ095-097-098-100-101-251700-
SOUTHERN COAST

CITY           SKY/WX    TMP DP  RH WIND       PRES   REMARKS
BEAUFORT       PTSUNNY   84  65  52 E10       30.17F
CEDAR ISLAND   NOT AVBL
JACKSONVILLE   SUNNY     85  67  54 NE5       30.17S
PINEY ISLAND   NOT AVBL
WILMINGTON     PTSUNNY   85  70  60 CALM      30.17S


$$

NCZ011>013-027>030-043-044-078>080-089-090>093-098-251700-
COASTAL PLAIN

CITY           SKY/WX    TMP DP  RH WIND       PRES   REMARKS
AHOSKIE        SUNNY     82  69  66 CALM      30.17F
CLINTON        SUNNY     83  71  66 CALM      30.18F
ELIZABETHTOWN  PTSUNNY   85  69  57 NW5       30.18S
GOLDSBORO      SUNNY     86  68  54 VRB5      30.16S
GREENVILLE     MOSUNNY   84  68  58 SW3       30.18F
HAVELOCK       MOSUNNY   87  66  49 VRB6      30.18F
KENANSVILLE    MOSUNNY   84  68  58 CALM      30.18
KINSTON        MOSUNNY   86  66  51 S3        30.18S
NEW BERN       MOSUNNY   85  67  54 CALM      30.18F
RICHLANDS      MOSUNNY   85  69  58 S5        30.18S
ROCKY MOUNT    SUNNY     85  68  56 S7        30.17F
WASHINGTON     SUNNY     84  67  57 N5        30.17F
WHITEVILLE     PTSUNNY   85  69  58 CALM      30.17F

$$

AMZ130-135-150-152-154-156-158-170-250-252-270-ANZ085-086-088-633-658-670-251700-
MARINE OBSERVATIONS

STATION/POSITION TIME  TEMP    WIND        PRES    WAVE   SWELL
                       AIR SEA DIR/SP/G            HT/PER HT/PER
                 (UTC) (F)     (DEG/KT/KT) (MB)    (FT/S) (FT/S)
CHESAPEAKE LIGHT NOT AVBL
64 E VA BEACH    1550   79 82  280/  6/ 10 1021.7    2/10   2/10
DUCK             1600   81 78  120/  5/  6 1021.3
2 E DUCK         1511      79                N/A     2/10   2/11
OREGON INLET     1600   80 79   80/  6/  8 1021.8
13E OREGON INLT  1600      80                N/A     2/10   2/10
HATTERAS CG      1600   80 79   10/  7/ 11 1021.6
DIAMOND BUOY     1550   81 84   80/  6/ 10 1021.7    3/10   2/10
CAPE LOOKOUT     1600   81      40/  9/ 10 1021.5
BEAUFORT LAB     1600   82 79  110/  6/ 10 1021.1
30 SE NEW RVR IN 1608   82 84   50/  8/ 14 1021.5
30 SE NEW RVR IN 1525      84                N/A     3/10
27 SE WRIGHTSVLE 1608   82 83   60/ 10/ 12 1021.7
5 SE WRIGHTSVLE  1608   82 83   90/  6/ 10 1022.7
225 S CAPE HAT   1550   82 84   50/ 16/ 17 1019.4    5/ 7   3/ 9
41 SE CHARLESTON 1550   83 84   50/ 12/ 14 1020.5    3/10   2/10

$$




USA.gov is the U.S. government's official web portal to all federal, state and local government web resources and services.